Probability
0 0 0 0 0 0 0 0 0 0 0 0 0 0 0 0 0 0 0 0 0 0 0 0 0 0 0 0 0 0 0 0 0 0 0 3 6 16
0 0 0 0 0 0 0 0 0 0 0 0 0 0 0 0 0 0 0 0 0 0 0 0 0 0 0 0 0 0 0 0 0 0 0 0 0 0
0 0 0 0 0 0 0 0 0 0 0 0 0 0 0 0 0 0 0 0 0 0 0 0 0 0 0 0 0 0 0 0 0 0 0 0 0 0
0 0 0 0 0 0 0 0 0 0 0 0 0 0 0 0 0 0 0 0 0 0 0 0 0 0 0 0 0 0 0 0 0 0 0 0 0 0
0 0 0 0 0 0 0 0 0 0 0 0 0 0 0 0 0 0 0 0 0 0 0 0 0 0 0 0 0 0 0 0 0 0 0 0 0 0
0 0 0 0 0 0 0 0 0 0 0 0 0 0 0 0 0 0 0 0 0 0 0 0 0 0 0 0 0 0 0 0 0 0 0 0 0 0
0 0 0 0 0 0 0 0 0 0 0 0 0 0 0 0 0 0 0 0 0 0 0 0 0 0 0 0 0 0 0 0 0 0 0 0 0 0
0 0 0 0 0 0 0 0 0 0 0 0 0 0 0 0 0 0 0 0 0 0 0 0 0 0 0 0 0 0 0 0 0 0 0 0 0 0
0 0 0 0 0 0 0 0 0 0 0 0 0 0 0 0 0 0 0 0 0 0 0 0 0 0 0 0 0 0 0 0 0 0 0 0 0 0
0 0 0 0 0 0 0 0 0 0 0 0 0 0 0 0 0 0 0 0 0 0 0 0 0 0 0 0 0 0 0 0 0 0 0 0 0 0
0 0 0 0 0 0 0 0 0 0 0 0 0 0 0 0 0 0 0 0 0 0 0 0 0 0 0 0 0 0 0 0 0 0 0 0 0 0
0 0 0 0 0 0 0 0 0 0 0 0 0 0 0 0 0 0 0 0 0 0 0 0 0 0 0 0 0 0 0 0 0 0 0 0 0 0
0 0 0 0 0 0 0 0 0 0 0 0 0 0 0 0 0 0 0 0 0 0 0 0 0 0 0 0 0 0 0 0 0 0 0 0 0 0
0 0 0 0 0 0 0 0 0 0 0 0 0 0 0 0 0 0 0 0 0 0 0 0 0 0 0 0 0 0 0 0 0 0 0 0 0 0
0 0 0 0 0 0 0 0 0 0 0 0 0 0 0 0 0 0 0 0 0 0 0 0 0 0 0 0 0 0 0 0 0 0 0 0 0 0
0 0 0 0 0 0 0 0 0 0 0 0 0 0 0 0 0 0 0 0 0 0 0 0 0 0 0 0 0 0 0 0 0 0 0 0 0 0
0 0 0 0 0 0 0 0 0 0 0 0 0 0 0 0 0 0 0 0 0 0 0 0 0 0 0 0 0 0 0 0 0 0 0 0 0 0
0 0 0 0 0 0 0 0 0 0 0 0 0 0 0 0 0 0 0 0 0 0 0 0 0 0 0 0 0 0 0 0 0 0 0 0 0 0
0 0 0 0 0 0 0 0 0 0 0 0 0 0 0 0 0 0 0 0 0 0 0 0 0 0 0 0 0 0 0 0 0 0 0 0 0 0
0 0 0 0 0 0 0 0 0 0 0 0 0 0 0 0 0 0 0 0 0 0 0 0 0 0 0 0 0 0 0 0 0 0 0 0 0 0
0 0 0 0 0 0 0 0 0 0 0 0 0 0 0 0 0 0 0 0 0 0 0 0 0 0 0 0 0 0 0 0 0 0 0 0 0 0
0 0 0 0 0 0 0 0 0 0 0 0 0 0 0 0 0 0 0 0 0 0 0 0 0 0 0 0 0 0 0 0 0 0 0 0 0 0
0 0 0 0 0 0 0 0 0 0 0 0 0 0 0 0 0 0 0 0 0 0 0 0 0 0 0 0 0 0 0 0 0 0 0 0 0 0
Height
5725 5726 5728 5730 5732 5735 5738 5741 5746 5749 5753 5757 5760 5764 5768 5773 5778 5783 5788 5794 5800 5806 5812 5818 5824 5829 5834 5839 5844 5848 5852 5856 5859 5863 5866 5869 5872 5874
5712 5714 5716 5718 5720 5723 5726 5730 5734 5738 5743 5747 5750 5754 5759 5764 5768 5773 5779 5785 5791 5797 5803 5810 5816 5821 5827 5832 5837 5842 5846 5850 5853 5857 5860 5863 5866 5869
5699 5701 5702 5705 5707 5710 5714 5718 5722 5727 5732 5736 5740 5745 5749 5754 5759 5764 5769 5775 5781 5788 5794 5801 5807 5813 5819 5825 5830 5835 5839 5844 5847 5851 5854 5858 5861 5864
5687 5688 5689 5691 5694 5697 5701 5705 5710 5715 5721 5726 5729 5734 5740 5744 5749 5754 5760 5765 5772 5778 5785 5791 5798 5805 5811 5817 5823 5828 5833 5837 5841 5845 5849 5852 5855 5858
5674 5675 5676 5678 5680 5683 5687 5692 5696 5702 5708 5714 5718 5723 5729 5734 5739 5744 5750 5756 5762 5768 5775 5782 5789 5796 5803 5810 5816 5821 5826 5831 5835 5840 5843 5847 5850 5853
5660 5661 5662 5663 5666 5669 5673 5677 5682 5688 5694 5701 5707 5712 5718 5723 5729 5735 5740 5746 5752 5758 5765 5772 5779 5787 5795 5802 5808 5814 5819 5825 5830 5834 5838 5841 5844 5847
5646 5646 5647 5648 5650 5653 5657 5662 5667 5673 5680 5687 5694 5700 5706 5713 5719 5725 5730 5736 5742 5748 5755 5763 5771 5779 5786 5794 5801 5807 5813 5819 5824 5828 5832 5836 5839 5842
5632 5631 5631 5632 5634 5637 5640 5645 5651 5657 5665 5673 5680 5687 5694 5701 5708 5714 5720 5727 5733 5740 5746 5754 5762 5770 5779 5786 5793 5800 5807 5812 5818 5822 5827 5830 5833 5836
5618 5616 5615 5616 5617 5620 5623 5628 5634 5640 5648 5657 5665 5673 5681 5689 5696 5704 5710 5717 5724 5730 5736 5744 5752 5761 5770 5778 5786 5793 5800 5806 5811 5816 5821 5825 5828 5831
5603 5601 5600 5599 5600 5602 5606 5611 5616 5623 5631 5640 5650 5658 5665 5674 5683 5692 5699 5706 5712 5719 5727 5736 5744 5753 5762 5770 5778 5786 5793 5799 5805 5810 5815 5819 5822 5825
5588 5586 5584 5584 5584 5585 5589 5593 5599 5605 5611 5621 5631 5640 5650 5660 5670 5679 5687 5695 5703 5711 5719 5728 5736 5745 5754 5762 5770 5778 5786 5792 5798 5803 5808 5813 5816 5820
5575 5572 5570 5569 5569 5569 5572 5576 5581 5587 5593 5602 5612 5623 5634 5645 5655 5666 5676 5684 5693 5701 5710 5719 5728 5737 5746 5754 5762 5770 5778 5785 5791 5796 5802 5806 5810 5814
5562 5559 5556 5555 5554 5554 5556 5560 5564 5569 5575 5584 5594 5605 5617 5630 5641 5653 5663 5673 5683 5692 5701 5710 5719 5728 5738 5746 5754 5763 5770 5777 5784 5789 5795 5800 5804 5808
5552 5548 5545 5543 5541 5541 5542 5545 5548 5553 5560 5568 5579 5590 5603 5615 5627 5639 5650 5661 5671 5681 5690 5699 5709 5719 5728 5737 5745 5754 5762 5769 5776 5783 5788 5793 5797 5801
5542 5539 5535 5533 5531 5530 5530 5532 5535 5540 5547 5555 5565 5577 5588 5599 5611 5624 5636 5647 5659 5669 5679 5689 5699 5708 5718 5727 5736 5745 5753 5761 5768 5775 5781 5786 5791 5795
5535 5531 5527 5524 5522 5520 5520 5521 5524 5529 5535 5544 5553 5562 5573 5585 5598 5611 5623 5636 5647 5658 5669 5679 5689 5699 5709 5718 5727 5736 5745 5753 5761 5768 5774 5779 5784 5788
5529 5525 5521 5518 5516 5514 5513 5513 5515 5519 5526 5534 5543 5552 5562 5574 5586 5598 5611 5624 5636 5648 5659 5669 5679 5690 5699 5709 5719 5728 5737 5745 5753 5760 5766 5772 5777 5781
5524 5520 5517 5514 5512 5510 5509 5509 5510 5513 5519 5526 5534 5543 5553 5563 5575 5587 5600 5613 5625 5638 5649 5659 5670 5680 5691 5701 5710 5720 5729 5737 5745 5752 5759 5764 5770 5774
5519 5516 5513 5511 5509 5507 5507 5507 5508 5510 5515 5521 5529 5537 5546 5555 5566 5578 5590 5603 5615 5628 5639 5650 5660 5672 5682 5693 5702 5712 5720 5728 5736 5743 5750 5756 5761 5766
5516 5513 5510 5508 5507 5506 5505 5505 5506 5509 5512 5518 5524 5532 5540 5549 5560 5571 5582 5594 5606 5618 5630 5641 5653 5664 5675 5684 5693 5701 5710 5719 5726 5734 5740 5746 5753 5758
5512 5509 5507 5506 5505 5504 5504 5504 5505 5507 5511 5515 5521 5528 5536 5545 5554 5564 5575 5586 5598 5610 5622 5635 5645 5655 5665 5674 5683 5692 5700 5709 5717 5724 5731 5738 5744 5750
5508 5506 5504 5503 5502 5502 5503 5503 5504 5506 5510 5514 5519 5525 5533 5541 5549 5558 5569 5579 5591 5603 5614 5625 5635 5646 5657 5667 5676 5684 5692 5700 5708 5716 5723 5731 5736 5742
5505 5502 5501 5500 5500 5500 5501 5502 5504 5506 5509 5513 5518 5524 5530 5537 5545 5553 5563 5573 5584 5595 5606 5618 5629 5639 5650 5659 5668 5676 5684 5692 5699 5707 5715 5721 5728 5733
Wind_Speed
40 40 39 39 39 39 39 39 39 39 38 38 38 38 39 39 40 42 44 44 44 43 43 43 42 41 39 38 36 34 32 31 30 29 28 27 27 27
39 40 41 41 41 41 41 41 40 40 39 39 40 40 40 39 39 41 43 44 44 45 44 44 43 42 40 39 37 35 33 31 30 29 28 27 26 26
38 39 40 41 42 43 43 43 43 42 41 41 41 41 42 41 41 42 43 45 45 45 45 45 44 43 41 39 37 35 33 31 30 28 27 27 26 25
38 39 40 41 42 43 44 44 45 44 43 43 43 42 42 43 43 43 44 47 46 46 46 45 44 43 41 40 38 36 34 32 30 28 27 26 25 24
38 39 40 41 42 44 45 46 47 47 45 45 45 45 44 44 43 45 45 47 49 48 47 46 45 44 42 40 38 36 35 32 30 29 27 25 25 24
38 39 40 42 43 45 46 47 48 49 48 47 47 48 46 45 45 45 45 47 49 49 49 48 46 44 43 41 39 38 35 33 31 29 27 26 24 24
38 39 40 42 44 46 47 49 50 51 51 49 50 50 49 47 47 46 47 47 48 49 49 49 46 45 44 42 40 38 36 34 31 29 27 25 24 23
38 39 41 42 44 46 48 50 52 53 54 53 52 52 51 50 49 47 47 48 47 48 49 48 47 46 44 43 41 39 37 34 32 30 27 25 23 22
38 40 41 42 43 45 47 49 52 54 56 57 56 55 55 53 51 50 48 48 49 49 49 49 48 46 45 43 42 40 38 35 33 31 28 26 24 22
37 38 40 41 43 44 46 48 51 54 57 59 59 58 58 57 54 52 51 49 49 51 51 50 49 47 46 45 43 41 39 37 34 32 29 27 25 23
36 37 37 38 40 42 44 46 49 52 56 60 62 62 61 60 58 56 53 51 50 51 52 51 50 48 47 46 44 42 40 38 35 33 30 28 26 24
34 35 35 35 37 40 41 43 45 50 55 59 63 65 64 63 61 59 55 53 51 51 52 52 51 50 48 47 45 44 42 40 37 34 31 29 26 24
31 31 31 32 34 36 38 40 43 48 52 57 61 64 66 66 65 62 59 55 53 51 52 53 53 52 50 48 47 45 43 41 39 36 33 30 28 25
28 27 27 28 29 31 33 36 40 45 49 54 59 63 65 67 67 66 63 59 56 53 53 54 55 54 52 51 49 47 46 43 41 38 35 32 29 27
26 25 24 24 25 26 28 32 36 40 45 50 55 60 63 66 67 67 66 62 58 55 54 55 55 55 55 53 51 50 48 46 43 40 37 34 31 28
23 22 21 20 20 21 23 27 31 36 41 46 51 56 61 65 67 67 66 65 61 58 56 55 56 56 55 55 53 51 49 47 45 42 39 35 33 30
21 19 17 16 16 16 17 19 23 30 36 41 46 51 57 62 65 67 67 66 62 60 59 56 55 56 55 55 55 53 50 47 45 43 40 37 34 32
19 17 15 14 12 12 11 13 18 23 30 37 42 46 51 57 62 66 67 66 63 61 60 58 55 55 54 54 54 53 51 48 46 44 41 39 36 33
18 16 14 12 11 9 9 10 13 18 24 31 37 41 45 51 57 62 65 65 62 61 60 58 56 54 53 52 51 52 51 49 47 45 43 40 38 36
16 14 12 11 9 7 7 9 12 16 21 27 32 36 40 45 51 56 61 64 62 61 60 59 57 55 52 51 49 49 51 50 48 46 44 43 40 37
16 14 12 10 8 7 7 7 10 14 18 24 28 31 35 40 44 49 55 59 60 59 59 58 57 54 52 50 49 49 49 51 49 47 46 44 41 39
15 14 12 10 9 8 8 8 9 13 17 20 25 29 31 35 40 45 50 54 56 57 56 56 57 54 52 49 47 47 47 49 48 47 45 43 42 40
14 13 11 10 9 8 9 10 10 13 16 20 23 26 29 33 37 41 45 50 52 54 54 54 56 54 51 50 48 46 46 46 47 46 45 43 42 40
Wind_Direction
262 258 255 252 250 248 245 243 241 239 238 236 233 231 229 227 227 226 225 225 225 226 225 226 226 228 229 230 232 233 235 236 235 235 236 238 239 242
263 258 254 251 249 247 244 242 240 238 236 236 234 231 230 227 227 226 225 224 224 224 223 224 225 226 228 229 231 231 232 232 233 234 235 236 237 240
265 260 256 252 249 246 244 241 239 237 235 234 233 231 230 228 226 224 223 222 222 221 222 223 223 225 227 228 228 228 229 229 230 231 233 234 235 238
267 261 257 253 250 247 244 242 239 237 235 233 233 231 229 228 226 223 222 221 219 219 219 221 222 223 224 225 226 226 226 226 227 228 229 231 233 235
268 263 259 255 251 248 245 242 239 236 234 232 231 231 229 229 227 224 222 221 219 218 218 218 219 219 221 223 223 222 223 223 224 225 226 228 231 235
270 265 261 257 253 249 245 242 239 236 233 231 230 229 229 228 227 225 222 221 218 217 216 216 216 217 218 219 219 220 220 220 221 222 223 226 229 233
273 268 263 259 254 250 246 242 239 236 233 230 228 228 228 228 226 225 223 222 219 216 215 214 214 215 215 216 217 218 218 218 217 218 221 224 227 232
277 272 267 262 257 252 247 243 239 236 233 230 227 226 226 226 226 225 223 223 220 216 215 213 213 213 213 214 215 215 216 215 216 217 219 223 227 231
279 274 270 265 260 254 249 244 240 236 232 230 227 225 225 224 224 224 223 222 221 218 214 212 212 211 212 213 214 214 214 215 215 217 220 223 227 231
281 276 271 265 260 256 251 246 241 237 233 229 226 225 223 222 222 222 223 223 221 219 216 212 211 210 211 212 213 213 213 214 215 217 221 224 227 232
286 281 274 268 262 257 252 247 242 237 233 228 224 223 222 220 220 220 221 222 221 219 216 212 211 211 211 212 212 212 213 214 215 217 221 224 227 232
289 283 277 270 264 260 254 248 242 236 232 227 224 222 220 219 218 218 219 220 220 218 216 212 212 212 212 212 212 212 213 215 216 218 220 223 227 232
293 287 280 273 267 261 255 247 241 235 231 227 223 220 219 218 217 216 216 217 217 217 215 213 212 212 212 212 212 213 214 215 216 218 220 223 227 232
297 291 283 278 271 263 256 248 240 235 230 226 222 219 217 216 216 215 215 214 215 215 215 213 212 212 212 212 212 213 214 215 217 219 221 224 227 232
302 296 289 284 276 268 258 248 240 234 229 224 220 217 216 215 214 213 213 213 213 213 213 211 210 211 212 212 212 213 214 215 217 219 222 225 228 232
307 302 295 289 282 270 261 250 240 233 226 221 218 216 214 214 213 212 211 211 211 212 212 210 210 211 211 212 212 213 214 216 217 220 223 226 229 232
311 308 301 296 290 278 263 248 237 228 221 217 216 215 214 213 212 211 210 211 212 212 212 211 210 210 212 213 213 214 216 217 219 221 224 226 229 232
312 309 305 298 294 284 269 249 233 223 216 213 212 213 213 213 212 211 211 210 211 211 211 210 210 208 211 212 214 215 216 218 220 222 224 227 229 232
314 311 306 301 293 279 263 245 227 216 211 208 209 211 212 212 212 211 210 210 210 211 211 210 210 209 209 211 214 216 217 219 220 222 225 227 229 231
311 310 304 298 292 278 261 241 224 215 209 206 207 209 210 211 211 211 210 210 210 210 210 210 211 210 211 211 213 214 215 217 220 222 224 226 229 231
308 305 300 293 282 268 251 236 222 214 208 205 204 205 206 207 208 209 210 211 210 209 208 209 209 209 209 210 211 214 216 216 218 221 223 226 228 231
308 302 296 284 270 257 243 231 218 208 204 202 202 202 203 205 206 207 209 209 209 208 207 208 209 210 211 211 212 214 216 219 220 222 224 226 228 230
309 302 292 276 264 250 234 226 216 204 201 201 201 203 204 203 203 204 206 206 207 207 207 208 209 211 212 212 213 214 216 218 221 222 222 224 227 230